Theta_e
342 342 343 348 347 344 345 345 344 345 344 344 344 345 347 349 349 349 348 349 348 348 348 349 348 348 348 348 348 347 346 345 345 345 342 342 342 341 341 342 342 343 343 345 346 347 347 347 347 347 347 347 347 349 349 349 349 349 349 348 348 348 346 346 345 346 346 346 346 345 344 345 345 344 342 342 342 342 342 342 341 339 338 341 344
341 342 343 345 347 345 344 345 345 345 344 343 344 345 346 348 348 348 348 348 348 347 347 348 348 347 348 348 347 346 345 344 344 342 342 342 342 341 341 341 341 341 343 343 343 345 346 346 347 346 346 345 346 348 347 348 347 346 346 345 345 346 346 345 344 344 344 344 346 345 345 346 345 346 346 345 344 344 343 342 342 339 338 344 344
342 343 344 345 348 346 343 344 344 344 344 344 344 347 348 348 348 348 348 348 348 348 347 348 348 347 347 347 345 344 343 342 342 342 340 340 340 340 340 341 340 343 342 341 341 343 344 344 345 344 344 344 345 346 346 346 345 344 344 344 344 344 344 345 343 343 343 343 343 343 343 345 344 345 345 345 346 345 342 342 342 341 339 343 343
342 343 344 344 346 346 345 344 344 344 343 343 345 348 348 348 348 348 348 348 348 347 347 347 347 346 347 346 344 343 342 344 343 342 341 340 340 340 339 340 340 340 341 341 341 341 341 342 342 343 342 341 345 346 345 345 345 345 345 345 346 345 345 345 344 343 342 341 341 340 338 336 340 344 345 346 345 344 342 341 342 343 342 342 343
342 343 343 341 340 343 344 344 344 344 343 343 345 348 348 348 347 348 348 347 347 347 346 346 346 346 345 345 345 342 341 341 343 343 342 340 339 339 339 339 339 340 340 340 340 341 340 340 341 341 342 341 343 344 344 344 345 345 345 345 345 345 346 344 343 343 342 341 340 338 335 336 337 341 343 345 344 341 340 341 341 342 341 341 341
342 342 341 339 339 341 344 344 343 343 343 342 343 347 347 347 346 347 347 347 347 347 346 345 345 345 344 344 344 342 341 342 341 342 342 342 340 341 341 340 341 340 339 339 339 339 339 339 339 340 340 341 343 343 343 344 344 344 344 344 344 344 345 345 342 341 340 339 338 335 334 335 335 337 341 343 343 340 340 340 340 339 339 339 339
342 342 341 340 339 341 343 344 344 343 343 342 342 342 346 346 347 347 347 347 347 347 346 346 345 345 345 344 342 341 341 339 343 343 343 341 338 338 339 338 338 338 339 339 340 339 340 341 339 339 339 340 342 342 342 343 343 344 344 343 343 344 344 344 342 341 339 336 333 333 333 334 334 335 342 342 341 340 339 339 339 337 337 337 338
342 343 342 340 339 341 343 345 343 343 343 343 345 346 346 346 346 347 347 347 347 346 345 344 344 343 342 342 341 341 339 339 342 339 340 341 339 338 340 340 339 340 340 339 339 339 339 340 339 339 340 340 340 341 342 342 343 343 342 342 342 343 344 344 341 340 338 332 330 330 330 331 333 334 339 339 339 338 338 339 338 337 337 336 336
342 342 341 340 340 341 343 344 344 343 343 343 345 346 346 345 346 347 347 347 346 344 344 343 342 342 342 341 339 339 339 339 338 338 339 340 340 341 341 339 338 338 338 338 339 339 339 338 338 338 339 338 340 339 341 342 342 342 342 341 342 342 343 341 339 337 333 330 329 329 329 329 329 331 336 337 337 336 335 335 336 335 335 334 334
341 341 340 339 339 341 344 344 344 343 343 343 344 344 345 345 345 346 347 347 346 344 343 342 342 341 341 340 340 338 338 338 338 339 339 339 339 340 340 340 341 338 337 337 337 338 340 339 339 339 339 340 339 339 340 341 341 341 341 341 341 341 341 337 336 334 331 331 330 330 332 335 329 330 334 336 334 334 333 334 336 337 334 334 333
340 340 339 339 340 340 344 344 345 344 343 343 342 342 341 345 346 346 346 346 346 344 342 342 340 339 339 338 339 339 338 338 338 338 339 340 340 341 341 341 340 339 339 338 339 339 340 340 340 340 340 340 339 339 340 340 340 340 341 340 341 341 340 335 332 327 327 327 327 328 333 335 326 328 336 335 334 333 336 335 331 332 331 330 329
340 340 340 340 343 340 343 343 343 343 343 342 341 341 340 343 347 346 344 344 345 345 343 342 339 338 338 337 337 337 336 335 338 339 342 342 342 342 341 339 338 338 338 338 339 340 340 340 340 340 340 340 339 339 339 340 340 340 340 340 340 340 338 333 327 326 326 326 326 326 327 328 327 331 335 334 333 332 333 333 332 332 330 329 329
340 340 341 340 339 339 342 343 343 343 342 342 341 340 340 341 344 341 342 343 344 344 343 341 339 337 336 336 336 336 336 336 337 337 338 341 342 342 341 341 340 339 338 338 338 339 339 339 339 339 340 339 339 339 339 339 339 340 339 339 338 338 335 331 326 324 324 325 326 327 328 327 328 334 333 333 333 332 333 331 331 330 330 330 329
340 340 340 340 339 343 338 341 343 343 343 343 341 341 340 341 340 340 342 344 344 343 342 341 339 339 337 337 337 337 336 336 338 339 339 340 341 342 341 341 340 340 339 339 338 338 338 338 338 339 338 339 338 338 338 338 338 339 338 338 337 336 333 331 329 324 324 325 327 327 327 328 328 333 333 333 333 332 329 327 327 328 327 327 328
339 340 340 340 339 339 340 338 340 340 342 343 342 341 341 341 340 339 339 339 339 339 341 341 340 339 338 338 337 337 336 335 339 338 338 338 339 340 341 340 340 340 339 339 338 338 338 338 338 338 338 338 339 338 338 338 338 337 338 337 336 334 331 328 326 324 325 326 326 326 325 327 333 329 330 331 332 331 329 326 327 327 326 326 326
340 340 339 339 338 338 338 340 335 336 339 340 340 341 342 342 342 343 343 338 338 340 340 340 340 340 339 338 339 340 340 338 338 338 338 338 337 340 340 339 339 338 337 337 337 337 338 337 337 337 337 337 338 338 337 337 337 337 337 335 334 332 329 329 326 324 323 323 324 325 325 327 330 329 331 332 331 330 327 325 326 326 325 325 325
340 339 339 338 338 338 337 337 334 331 332 335 337 339 341 343 343 343 343 343 340 339 340 340 339 339 338 338 338 339 340 339 337 338 339 340 341 339 338 338 338 338 338 337 337 336 336 336 336 336 336 336 337 338 337 337 337 336 335 334 332 330 329 328 328 326 324 324 324 323 322 324 333 331 331 330 329 327 325 325 324 325 324 325 325
340 340 338 338 338 337 337 335 333 334 333 332 333 336 338 340 340 339 340 341 342 341 341 341 340 338 339 337 337 337 339 340 340 339 339 339 339 340 339 339 339 338 336 335 335 336 335 335 335 335 335 335 336 337 336 335 335 334 333 332 330 329 328 328 326 324 325 327 323 324 324 332 332 329 329 330 328 326 325 324 325 324 323 323 323
339 339 339 338 338 338 336 335 334 333 333 332 331 332 333 337 338 337 338 339 340 340 340 336 337 336 334 332 332 333 333 334 337 337 335 334 334 336 338 338 337 337 336 336 335 336 335 335 334 334 335 335 336 335 335 334 333 332 332 330 328 326 326 326 324 323 323 323 323 322 322 332 330 327 327 330 328 325 323 325 325 323 322 323 323
338 339 338 338 338 337 336 335 335 334 333 332 331 331 330 330 334 334 334 335 336 336 335 333 331 329 329 329 328 327 327 327 326 328 331 332 331 330 335 337 336 335 335 335 335 335 334 334 334 334 335 335 335 333 333 333 332 332 331 328 323 322 324 324 323 323 322 323 322 320 328 333 328 328 329 329 327 325 322 321 324 322 322 322 321
338 338 338 338 338 337 336 335 335 335 334 333 332 330 328 327 327 328 330 331 331 332 331 326 324 324 324 324 325 324 324 325 327 325 324 324 324 326 334 336 336 335 335 334 335 334 334 334 334 334 334 333 330 330 330 332 331 330 330 326 320 321 323 324 324 324 321 320 321 321 330 332 329 329 328 329 326 325 323 324 323 323 323 322 321
333 335 337 338 337 337 336 336 335 335 334 335 334 331 330 330 329 327 326 326 325 325 326 326 329 322 323 324 324 325 324 324 326 330 323 323 321 321 327 333 335 333 335 334 334 334 333 333 333 333 333 331 325 317 318 323 327 329 326 321 318 320 322 323 324 322 322 319 320 324 332 333 330 329 329 328 327 326 324 323 322 321 322 321 322
330 333 334 337 337 337 336 336 335 334 335 335 335 332 331 331 330 329 327 325 328 326 326 327 324 325 323 323 323 323 323 324 325 326 324 321 322 322 325 329 332 331 333 334 333 333 333 332 331 331 330 328 320 317 317 317 314 320 314 315 317 319 322 322 320 320 320 320 320 327 331 331 329 328 329 329 328 327 324 324 323 322 322 320 320
330 331 333 336 337 336 336 336 335 334 335 334 333 332 332 332 331 330 329 327 327 327 326 327 327 326 326 326 324 323 323 324 328 328 326 321 320 321 323 325 326 326 326 328 331 332 332 331 330 329 324 319 317 318 319 318 320 317 316 317 318 319 319 321 319 320 320 322 321 326 330 332 330 329 329 329 328 326 325 323 323 323 322 322 322
329 330 332 334 336 336 336 335 334 333 335 334 332 332 332 331 331 330 330 329 328 328 328 327 327 327 325 326 323 323 323 324 324 323 322 321 318 318 319 318 319 318 321 319 319 321 319 318 315 316 314 317 317 318 316 315 315 317 318 316 317 316 315 316 317 318 319 321 320 324 329 332 331 330 329 329 328 327 326 325 324 324 323 323 323
329 329 331 332 334 336 335 336 334 332 333 333 333 331 331 330 329 330 329 329 328 328 328 328 327 328 324 324 323 323 323 322 322 321 321 321 321 319 319 319 318 319 319 319 317 317 316 316 315 317 317 316 316 317 314 315 316 315 315 315 314 315 314 314 315 319 317 320 320 322 327 332 331 331 331 329 330 328 328 326 326 326 326 325 324
327 329 330 331 333 335 334 335 334 332 331 331 331 330 330 331 331 330 328 328 327 327 327 327 328 328 324 323 322 321 320 320 320 319 320 322 321 320 320 320 321 319 320 318 319 320 317 319 318 318 315 314 315 314 315 315 315 315 314 314 314 314 314 315 316 315 315 317 319 319 324 329 332 332 331 331 330 330 330 328 327 328 326 325 325
326 327 329 330 330 333 334 334 333 332 330 330 329 330 329 331 331 328 328 328 327 327 327 327 328 328 325 324 323 321 321 319 321 319 319 322 321 322 321 320 321 320 320 318 319 318 315 315 318 317 315 314 316 315 314 314 314 313 314 313 313 313 313 314 314 315 315 315 318 318 321 326 328 331 332 332 332 331 330 330 330 329 328 327 327
326 325 327 328 330 332 334 333 332 332 332 330 329 328 329 329 329 329 328 326 328 327 328 327 327 327 325 324 322 321 319 322 321 322 320 321 321 322 320 321 322 321 320 317 320 317 316 316 315 316 314 313 312 313 314 314 313 313 314 314 314 314 314 316 315 315 314 314 316 317 319 324 327 331 331 331 332 333 332 330 330 330 330 330 328
326 326 326 327 330 332 333 333 333 333 333 332 330 328 328 328 328 329 328 326 326 327 326 326 327 326 325 324 322 321 321 321 322 321 321 320 317 319 319 320 321 319 320 318 317 317 316 313 313 313 313 313 313 315 313 315 314 314 312 314 315 316 316 314 315 315 316 316 316 317 317 321 325 330 331 332 332 332 332 332 331 331 331 331 330
326 325 326 326 329 331 332 333 333 332 333 331 329 329 328 328 328 328 328 328 326 326 325 326 325 326 326 325 324 323 321 320 321 321 321 320 319 320 319 317 318 317 319 319 316 317 316 316 316 315 314 313 314 313 314 315 314 314 313 313 314 314 315 316 313 314 315 315 316 315 317 318 322 326 330 332 332 332 332 332 333 333 333 333 332
326 325 327 327 328 330 331 332 333 333 332 331 330 329 329 329 328 328 328 328 328 326 325 324 323 325 324 324 324 323 322 320 320 320 321 320 319 319 320 318 318 317 318 319 316 316 315 314 313 314 313 312 313 311 311 313 314 314 311 313 314 314 314 314 314 315 314 314 314 316 316 317 317 320 325 329 332 332 332 332 333 333 333 332 333
326 327 327 327 328 329 330 331 333 332 333 331 331 330 330 330 329 328 329 330 328 328 326 324 324 325 325 325 324 324 322 322 320 320 318 319 320 320 320 320 320 320 318 317 316 314 313 312 312 313 313 312 311 313 311 310 311 313 312 313 313 314 315 315 315 314 314 314 314 315 316 316 316 315 317 321 328 332 332 332 332 332 332 333 332
325 326 327 327 329 330 331 331 331 332 332 332 331 330 330 330 330 329 330 331 329 328 327 324 323 323 325 325 324 323 323 322 321 320 319 319 318 318 319 319 320 318 318 317 317 314 314 312 311 311 314 311 313 313 311 312 310 310 311 312 309 313 313 314 314 315 314 314 314 315 316 316 315 316 317 317 320 323 329 332 332 331 332 333 333
324 325 327 328 328 330 332 332 330 331 332 332 330 331 329 330 329 329 329 330 330 330 329 329 324 324 326 325 325 324 322 322 321 320 319 319 319 317 316 319 320 317 318 315 316 315 313 314 311 311 311 311 311 312 311 312 311 312 313 313 313 313 313 313 314 314 314 314 314 314 315 316 316 316 316 317 314 317 322 328 331 331 332 332 333
325 325 326 327 328 330 330 331 329 330 332 331 330 331 330 329 329 327 330 327 329 331 331 330 330 327 328 328 327 326 325 321 321 321 320 319 320 321 319 319 317 317 317 315 314 315 313 313 313 312 311 311 311 311 310 310 311 311 311 311 311 311 312 312 313 312 313 313 313 314 315 315 316 316 314 316 316 316 318 320 325 329 331 332 332
326 325 326 326 327 329 329 330 329 330 331 333 331 329 330 329 329 329 330 327 328 331 332 332 331 329 327 328 328 327 326 326 323 323 324 322 320 319 319 318 318 318 317 315 316 316 315 315 315 313 313 311 309 309 310 309 310 310 310 310 311 311 311 311 312 312 313 312 312 313 314 315 315 312 315 315 316 316 316 317 320 324 326 328 331
326 326 327 327 327 328 329 330 330 330 331 332 332 331 331 330 330 331 330 330 329 330 332 332 332 330 328 326 327 327 327 328 327 325 325 325 325 324 324 323 321 321 320 318 318 317 316 315 314 312 312 311 310 309 309 309 310 310 310 309 310 309 310 310 310 308 309 311 311 312 313 314 315 315 315 315 316 316 316 316 316 317 317 319 325
327 327 327 327 326 327 327 326 329 330 330 331 332 333 333 333 333 331 331 331 331 331 329 328 330 331 331 330 328 328 327 328 327 327 326 325 323 323 321 322 323 323 322 321 319 317 314 312 312 313 310 312 312 311 311 310 310 310 309 309 307 308 308 307 308 307 309 310 311 311 312 313 313 314 314 314 315 315 316 316 316 316 316 316 322
326 327 326 326 326 326 327 326 328 330 329 330 330 331 332 331 330 330 330 330 331 330 330 328 327 327 329 328 327 326 325 326 327 327 326 323 320 320 323 323 320 318 318 319 319 318 317 314 312 312 312 313 312 312 311 310 309 308 306 307 307 306 307 307 307 308 308 309 310 311 310 311 310 311 312 313 314 314 315 315 314 317 317 317 317
325 326 326 325 326 326 325 325 327 329 328 327 328 329 329 328 328 329 328 326 327 328 330 330 329 327 326 326 325 325 324 324 324 324 323 321 322 323 324 322 320 319 318 318 318 317 317 316 316 314 312 312 313 313 312 309 308 309 309 307 308 309 309 309 310 310 309 310 309 309 309 309 309 309 310 311 312 312 313 313 315 316 316 317 317
323 324 325 326 326 325 326 326 326 327 328 327 327 328 328 328 328 327 324 323 325 326 327 328 329 329 327 327 326 325 325 324 323 324 325 326 325 324 323 322 321 321 319 319 320 317 318 317 317 315 313 312 313 314 313 310 308 307 308 308 309 310 311 310 309 309 309 308 308 308 308 308 308 308 308 308 308 309 311 312 313 314 315 316 316
322 324 325 324 324 324 325 326 326 326 326 326 326 327 325 325 326 321 325 320 322 326 327 328 329 328 328 327 327 327 326 326 326 326 327 328 326 324 322 322 321 321 319 318 317 316 317 316 317 317 315 314 314 313 312 312 311 306 308 307 307 307 308 304 306 307 307 307 307 307 308 307 307 307 307 306 307 307 309 310 311 312 313 314 314
317 318 321 323 325 324 324 325 326 326 325 325 323 325 325 324 325 323 324 325 322 321 324 322 324 324 326 327 327 327 327 328 328 328 328 328 327 326 326 323 323 320 320 321 320 320 317 316 316 316 316 315 312 312 312 310 311 309 307 306 306 306 305 304 302 308 307 308 307 307 306 306 306 306 306 306 307 307 307 308 309 310 311 312 313
311 316 317 322 326 324 324 325 326 326 325 323 323 323 322 320 322 318 319 319 318 318 319 319 320 322 323 323 326 326 327 327 326 327 326 328 327 326 325 325 324 322 322 321 320 320 319 317 318 317 316 316 315 313 312 311 310 312 312 308 306 302 304 307 310 312 313 305 304 305 305 305 305 305 305 305 306 306 307 307 308 309 310 310 311
301 304 309 317 320 322 322 323 324 325 325 323 323 323 322 322 319 319 318 317 315 314 315 316 317 319 321 320 325 325 326 325 326 327 328 326 327 328 327 327 325 324 322 322 321 320 320 319 319 318 317 316 316 314 312 311 312 311 312 314 313 310 309 310 308 305 307 309 311 308 307 306 305 304 304 304 305 305 306 306 307 308 309 309 310
299 300 304 310 314 319 320 321 322 323 324 323 322 322 321 321 321 320 317 317 316 310 310 312 314 313 315 318 318 320 322 323 322 323 325 325 326 326 327 326 325 325 323 323 322 322 321 320 318 318 319 315 314 313 313 314 311 310 310 311 311 311 312 307 305 307 303 307 310 310 308 308 308 306 304 304 305 305 306 306 307 308 308 309 309
298 301 303 305 311 315 317 318 319 320 322 323 321 322 320 317 317 316 316 314 316 315 314 314 314 317 317 316 317 318 319 319 319 320 322 322 322 323 324 323 323 324 322 322 322 322 321 321 318 317 316 315 315 314 314 314 312 312 309 308 308 308 308 308 307 305 303 300 304 309 310 310 310 311 311 310 308 307 307 306 306 307 307 308 308
299 300 301 303 306 308 313 313 315 317 316 320 320 317 319 317 315 315 313 312 315 314 315 316 318 317 314 312 314 315 318 318 319 320 320 320 319 321 321 321 320 321 317 321 321 321 321 320 319 318 317 317 316 317 316 315 314 313 310 308 307 307 307 307 306 305 302 302 304 306 307 309 309 309 309 310 310 309 307 308 308 307 307 307 307
299 298 300 302 304 306 310 312 312 314 315 315 317 313 313 314 313 313 314 313 315 315 315 314 314 313 313 311 311 314 314 314 316 315 315 315 315 314 316 317 318 319 317 320 319 319 319 319 320 319 319 318 317 315 314 315 314 314 313 312 309 304 304 305 304 304 304 304 301 303 305 305 305 309 310 311 309 310 309 308 307 307 307 307 308
301 301 301 302 303 306 308 310 308 309 311 313 314 312 311 313 313 312 313 313 313 314 312 313 310 309 310 308 308 309 310 311 311 311 309 310 311 311 312 313 314 313 313 314 315 316 316 316 317 317 317 317 316 316 314 313 313 313 313 312 311 312 310 307 308 307 303 300 303 305 308 308 308 308 310 310 310 310 310 311 311 310 309 309 309
Wind_Speed
4 6 3 6 9 10 10 11 11 11 12 11 11 12 13 12 12 12 13 12 13 13 14 14 15 16 17 17 18 18 16 17 17 17 17 15 15 16 15 15 16 16 16 16 16 17 17 18 18 18 18 17 18 18 18 18 17 18 18 17 18 17 18 19 19 19 19 19 18 17 16 15 16 16 16 17 17 16 13 13 11 8 7 12 17
8 5 4 3 8 9 11 11 12 12 11 11 11 11 12 13 12 12 13 13 13 14 14 15 15 15 17 17 17 16 16 17 17 16 16 15 15 15 15 16 17 17 17 16 16 16 17 17 18 18 17 16 17 17 16 17 17 16 17 16 16 16 15 16 16 16 17 17 18 18 17 17 17 17 17 17 17 17 14 15 16 8 6 16 17
8 6 4 4 8 8 9 11 12 13 12 11 10 13 14 12 12 13 12 13 14 14 14 14 15 16 17 17 16 15 16 15 16 16 15 14 15 15 15 16 17 18 17 17 16 16 16 17 18 17 17 16 16 15 15 15 15 15 15 15 14 13 13 12 15 16 17 17 17 16 16 18 17 17 18 19 19 17 14 15 15 14 10 17 15
10 5 4 5 8 9 10 11 11 11 10 10 12 14 13 12 12 13 12 14 14 14 14 14 14 16 16 15 15 14 13 17 17 16 15 15 15 15 16 16 16 17 17 16 16 17 17 17 18 17 16 15 15 14 14 14 14 14 13 14 14 14 14 15 14 14 15 15 15 12 8 7 9 17 19 18 19 18 16 17 18 19 19 18 18
10 6 5 5 6 8 10 11 11 11 11 10 12 13 12 13 13 14 14 14 14 14 14 14 14 14 14 15 15 15 15 15 17 16 16 15 14 15 15 15 16 16 17 16 16 16 17 17 17 16 16 15 15 14 13 13 14 14 14 14 15 14 13 14 16 16 15 14 13 9 7 7 7 14 17 19 18 15 15 17 17 17 17 18 17
9 7 6 6 5 6 10 11 11 11 11 11 12 13 11 12 12 12 13 14 14 14 14 14 14 13 14 15 15 14 13 16 15 16 16 15 15 15 15 16 16 16 16 16 16 16 16 16 16 16 16 15 14 13 12 13 14 13 14 14 14 14 12 12 16 15 14 12 10 7 7 7 5 5 16 18 17 12 14 16 16 16 16 17 17
10 7 7 6 5 6 9 11 12 11 11 10 9 10 12 12 13 12 13 14 15 15 14 15 14 15 15 15 15 13 14 14 16 16 15 14 14 14 14 14 15 16 15 15 16 16 16 16 16 16 15 14 13 12 12 13 13 14 14 15 14 12 10 10 14 13 11 7 6 5 6 6 5 3 16 17 17 17 15 14 14 14 14 14 15
8 7 7 6 5 7 10 11 12 12 11 9 11 14 13 12 13 13 13 14 14 15 15 14 14 13 13 14 14 15 13 14 15 14 14 14 14 13 15 15 15 15 15 15 15 15 15 15 15 15 15 14 13 12 12 12 13 14 14 14 15 13 9 8 13 12 11 6 5 5 5 4 6 5 15 15 15 16 15 15 14 13 13 13 9
8 9 8 6 6 11 10 11 13 12 11 9 11 13 12 11 13 13 13 14 14 15 14 14 14 14 15 15 14 14 13 14 14 14 14 14 13 14 14 13 14 14 14 15 15 15 15 15 15 14 14 14 12 11 11 12 13 13 14 15 15 14 12 10 12 13 8 6 6 6 5 4 4 5 12 15 15 14 14 10 10 13 13 12 11
8 7 7 6 6 10 11 12 12 12 12 12 11 12 13 12 13 14 14 14 14 15 14 14 14 14 15 15 14 13 13 13 13 14 12 13 13 14 14 14 13 13 13 14 14 15 14 14 14 14 14 14 12 11 11 12 12 13 14 14 14 14 12 12 11 9 7 6 6 5 5 6 5 5 10 15 14 13 11 9 7 8 7 10 11
8 7 6 6 8 11 13 13 11 12 12 11 11 11 11 14 13 14 14 15 14 15 15 14 14 14 13 14 14 15 14 13 12 12 12 13 13 13 13 13 14 13 14 14 14 14 14 14 14 14 14 13 12 11 10 10 11 12 13 14 14 14 11 12 10 5 5 5 5 4 5 7 3 3 10 13 12 11 8 9 10 11 11 10 10
8 7 6 6 9 11 13 11 12 12 11 11 11 10 9 9 15 14 15 15 14 14 15 14 14 13 13 13 13 13 12 11 12 12 14 14 13 14 14 14 14 14 14 14 13 14 13 14 14 14 13 13 11 10 9 10 10 12 13 14 14 12 10 12 8 6 6 7 6 5 5 5 4 7 11 11 11 10 11 11 11 11 10 9 8
9 7 6 5 6 10 12 12 11 11 11 11 10 10 9 9 9 12 14 13 14 14 15 14 13 13 13 13 13 13 11 11 12 11 11 13 14 15 15 14 14 13 13 13 12 12 13 13 13 13 13 12 10 10 9 10 10 12 13 14 13 12 10 8 6 6 5 6 6 6 6 5 4 9 10 10 10 9 11 11 10 10 10 9 9
9 7 6 6 5 9 11 11 10 10 10 9 10 9 10 12 12 11 14 15 14 14 14 14 13 13 13 12 11 12 11 12 12 11 11 11 12 13 13 14 14 14 13 13 12 12 12 12 12 12 12 11 10 9 10 9 10 11 12 13 11 12 10 6 6 5 5 5 4 5 5 4 4 9 9 10 9 9 9 8 7 7 7 8 8
11 9 7 6 6 6 11 11 10 9 8 9 9 10 11 11 11 12 12 12 11 13 13 13 13 13 12 12 10 9 10 11 12 10 10 10 11 12 13 13 14 14 13 13 12 12 12 12 11 11 11 10 9 9 8 9 9 11 12 12 10 10 11 5 5 4 5 5 4 4 4 4 6 7 7 9 8 10 8 5 6 7 7 7 7
11 10 8 7 6 6 6 9 9 8 8 9 9 9 10 10 10 12 11 10 12 13 12 12 12 12 13 12 12 12 12 11 11 11 11 10 9 12 12 12 12 12 12 11 11 11 11 11 11 10 10 9 9 8 8 8 9 10 11 10 8 11 11 6 5 4 5 5 3 3 2 2 4 7 10 9 8 7 6 5 7 6 6 5 6
10 10 9 8 7 6 6 5 6 9 9 9 9 9 9 10 11 11 9 9 10 12 12 11 11 12 12 12 11 10 10 10 10 10 12 14 14 12 11 11 12 13 12 11 11 10 10 10 10 10 9 9 9 8 8 8 9 10 9 7 9 9 10 7 4 4 4 3 3 3 2 1 2 9 6 5 6 6 5 5 5 5 5 6 6
9 9 9 8 7 6 6 5 6 5 5 7 9 10 10 11 10 10 9 10 11 11 10 11 11 10 9 10 9 9 9 10 11 11 11 11 10 12 13 13 13 12 11 10 9 9 9 9 8 8 9 8 8 8 8 8 8 8 7 8 8 8 8 6 3 3 4 3 3 2 1 1 1 6 5 6 6 6 5 3 4 4 3 3 4
8 8 8 8 7 6 6 5 5 5 5 5 4 7 10 10 9 10 10 10 10 11 11 10 10 9 10 10 9 9 9 10 10 9 9 9 10 9 10 10 11 10 10 9 9 9 8 8 8 8 7 7 7 6 6 6 6 6 6 6 6 6 7 4 2 2 2 3 3 3 1 2 2 3 1 6 6 6 3 4 5 4 3 3 3
7 8 8 7 7 7 6 5 5 5 5 5 5 5 8 10 9 10 10 9 10 10 10 10 9 9 9 9 9 7 7 7 10 8 10 9 9 7 9 8 9 9 9 8 8 8 7 7 7 6 6 5 4 4 4 3 3 3 3 4 5 6 4 4 3 2 1 2 3 3 3 2 2 1 3 4 4 3 2 2 3 2 3 2 1
6 7 7 7 8 8 8 6 6 6 6 6 5 5 7 10 7 9 9 9 9 9 9 9 8 7 7 8 8 5 4 4 5 5 7 5 8 9 8 8 8 8 7 7 7 7 7 6 4 4 4 4 3 2 2 2 1 1 1 2 4 3 4 4 4 2 1 2 2 2 3 3 3 3 2 6 3 3 2 2 1 1 4 3 3
7 6 6 8 8 7 9 7 6 7 6 5 5 5 5 6 7 5 5 6 7 7 6 4 5 4 6 4 4 4 5 4 4 5 4 4 5 7 7 7 6 5 5 6 6 6 5 4 3 2 2 2 1 0 1 4 2 3 3 2 2 4 4 3 4 2 1 2 2 3 3 3 3 4 6 3 6 2 3 2 1 2 2 1 2
7 7 6 8 8 7 7 7 7 7 7 6 5 5 6 5 5 5 5 5 5 5 4 4 4 4 3 3 3 1 3 4 5 5 4 6 6 7 7 6 6 7 6 7 6 4 3 2 2 2 2 1 1 2 3 3 4 4 4 1 2 3 4 4 3 1 2 3 3 4 3 4 4 4 1 3 4 3 4 3 3 2 2 3 3
6 7 8 6 9 8 8 8 7 9 8 6 6 6 5 5 5 5 5 5 5 5 4 4 4 4 4 4 3 3 4 5 6 9 7 4 4 6 6 7 6 7 7 5 5 4 3 0 1 2 3 1 2 3 3 3 4 3 3 2 2 3 3 4 3 2 3 3 4 6 5 5 6 5 6 6 5 2 5 4 5 4 5 5 5
6 6 6 7 8 9 7 7 7 9 9 7 7 6 6 5 5 5 5 5 5 5 5 4 4 4 4 4 3 4 5 5 5 5 5 4 3 3 3 3 4 3 4 3 2 2 1 1 2 2 2 3 1 3 2 2 2 1 3 3 2 3 2 1 2 3 3 4 4 8 6 6 7 7 6 7 4 6 6 6 6 6 6 5 6
6 6 7 7 8 8 8 7 7 8 9 8 7 7 7 6 5 6 6 5 5 5 5 5 5 5 3 3 5 5 5 6 5 5 4 4 4 5 4 4 3 4 3 3 3 2 3 3 2 4 3 2 3 4 2 1 1 0 1 1 1 2 1 2 2 4 1 4 4 8 8 7 8 9 9 8 9 8 9 9 8 8 10 9 8
7 7 7 6 7 8 8 8 8 7 8 7 7 7 6 7 7 7 7 6 5 6 5 6 5 5 4 3 4 6 5 6 5 5 5 4 5 5 5 5 5 4 5 5 4 4 5 5 5 4 3 2 3 1 1 1 0 2 2 2 2 2 2 3 4 3 2 3 5 9 9 9 9 10 10 11 10 10 10 8 10 12 9 8 10
6 8 7 6 6 8 8 8 8 8 6 7 7 8 6 7 7 7 7 8 7 6 6 6 5 6 4 5 4 6 6 5 5 4 5 5 5 5 5 5 5 5 5 5 5 6 5 5 4 4 3 3 1 1 2 2 3 3 3 4 4 3 3 3 3 4 3 2 4 7 10 9 9 9 11 12 13 12 11 12 14 14 13 11 11
8 8 7 6 7 8 7 8 7 8 7 7 6 7 6 6 6 7 7 8 7 6 6 5 5 6 5 4 4 3 4 6 5 5 5 6 6 5 5 6 6 6 5 4 5 6 5 4 4 4 5 2 2 3 3 4 4 3 4 4 4 4 4 4 4 4 4 3 3 5 9 11 10 9 11 12 14 15 15 13 13 15 15 14 12
10 9 8 7 7 8 8 8 8 8 7 6 6 6 6 6 5 6 5 5 6 6 4 6 6 6 6 4 4 4 5 6 6 5 5 5 4 4 6 6 6 6 6 5 6 5 5 4 4 4 4 4 4 5 4 4 4 4 5 4 5 5 5 4 4 5 5 5 4 5 8 11 12 11 12 13 14 16 16 16 15 15 16 17 16
9 8 8 7 7 8 8 8 8 7 6 6 5 6 6 6 5 5 6 5 4 3 5 5 5 6 6 5 4 4 4 3 5 5 5 5 4 5 5 5 5 4 6 6 4 5 5 5 5 5 4 4 5 4 4 5 5 5 4 4 6 4 5 5 4 4 4 5 5 4 5 10 12 12 12 13 15 17 17 17 18 18 18 18 18
10 9 8 7 8 8 9 9 9 8 8 7 6 6 6 6 5 5 6 5 5 4 3 4 6 5 4 4 4 4 4 3 3 4 5 5 5 6 5 4 5 4 5 5 4 4 4 4 4 4 4 4 4 4 3 4 5 6 4 4 5 5 6 6 5 5 5 4 5 5 5 5 9 12 13 13 15 16 17 18 19 19 19 19 20
8 10 9 7 8 7 9 8 8 8 8 8 7 5 6 6 6 5 5 5 5 6 4 4 4 5 5 5 4 4 4 4 2 3 4 5 5 5 5 5 5 5 4 5 5 4 4 2 3 1 2 2 2 4 2 2 4 6 4 5 5 5 6 5 6 6 6 5 6 6 6 5 5 9 12 13 14 16 17 18 19 20 20 21 20
7 7 8 10 8 6 6 6 7 8 9 7 7 6 5 6 6 5 5 5 5 5 5 4 1 3 5 5 4 4 4 4 3 1 3 4 3 4 4 5 5 4 4 5 6 4 5 3 4 1 4 3 5 5 4 6 5 4 5 5 4 6 6 6 6 7 6 6 7 6 7 6 6 6 6 11 14 15 15 17 19 20 20 21 22
7 6 10 10 8 8 7 6 7 7 8 7 8 6 5 6 6 6 4 5 5 5 5 5 3 3 3 6 5 5 4 3 2 2 3 3 3 3 3 5 5 4 4 4 5 4 4 4 3 3 4 4 5 5 4 6 6 7 6 5 6 6 6 7 6 6 7 7 6 6 7 7 7 7 7 7 9 14 15 17 18 19 20 21 22
8 9 9 9 9 9 8 8 7 7 6 7 6 6 5 5 5 5 6 4 6 5 5 5 5 4 3 3 5 5 4 3 2 1 0 3 3 4 4 3 4 3 3 3 3 4 4 3 4 3 5 6 4 6 4 6 5 7 6 6 6 6 7 7 7 7 7 6 6 7 7 7 7 7 7 7 7 9 15 17 17 17 19 21 22
9 8 9 8 9 9 10 9 10 9 6 6 6 5 5 5 5 5 5 5 5 6 5 5 5 6 6 5 3 3 3 4 3 1 1 1 1 2 3 3 3 3 3 4 4 4 4 5 5 5 5 6 4 5 5 5 6 7 6 6 7 7 7 7 7 7 6 6 7 7 7 8 8 8 7 7 7 7 11 15 16 17 19 19 20
9 9 9 11 10 10 9 10 9 9 7 7 6 5 5 5 5 5 6 6 5 5 6 6 5 5 4 4 3 6 6 5 4 3 3 3 3 3 3 3 2 3 4 4 6 5 4 4 5 3 4 4 4 5 6 6 5 5 6 6 7 6 7 6 6 6 6 7 7 8 9 8 8 8 8 8 8 8 8 11 15 17 18 19 18
8 9 8 8 8 8 8 8 9 8 8 8 7 5 5 4 4 5 5 6 5 6 5 5 6 6 5 5 5 4 5 5 6 7 6 6 5 4 3 3 2 2 4 4 3 2 3 3 4 5 3 5 6 6 7 6 5 5 6 7 6 6 6 5 6 6 6 7 8 10 7 8 7 7 8 8 7 7 8 8 7 8 10 17 17
9 8 9 8 8 8 8 7 8 9 7 7 7 6 5 6 6 4 5 6 6 5 5 5 4 5 5 6 6 6 5 6 7 7 6 6 4 5 5 5 4 3 3 3 3 4 5 5 5 5 6 5 5 5 5 5 5 6 7 8 7 6 7 7 7 7 7 9 10 9 8 9 6 8 8 8 8 8 8 8 8 9 9 12 17
7 8 9 8 9 10 9 10 9 9 8 8 8 8 8 6 5 7 7 5 5 5 5 5 5 5 5 5 5 5 5 5 4 4 5 5 5 5 5 5 5 4 5 6 6 6 5 5 4 4 6 6 5 4 4 3 5 7 6 7 8 6 9 10 10 9 9 10 8 8 8 8 8 8 9 8 8 8 7 8 8 9 9 9 11
8 9 10 11 9 8 11 10 7 9 9 9 8 8 7 8 8 8 6 5 5 5 5 5 5 5 6 6 5 5 5 5 5 5 5 6 6 5 5 6 6 6 6 5 6 6 6 5 4 5 3 6 4 2 3 1 3 5 6 6 6 7 10 9 9 10 9 7 8 8 8 9 9 9 8 7 8 8 8 8 8 9 9 9 10
10 10 9 8 8 8 9 9 8 9 9 9 8 9 6 6 6 4 6 4 3 5 6 6 7 6 6 6 5 5 5 5 5 6 6 6 5 5 6 6 5 5 5 7 5 5 5 5 5 6 5 2 4 3 4 6 5 2 3 5 6 6 3 3 4 7 7 8 8 9 10 8 10 9 8 6 7 8 8 8 9 9 10 10 10
7 6 7 10 9 8 8 9 10 8 8 9 9 7 7 6 6 6 6 7 6 5 5 3 4 4 5 5 4 5 5 5 6 6 6 6 6 6 5 4 5 5 6 7 7 7 4 4 4 4 2 4 3 4 5 6 6 3 5 3 4 4 11 2 3 6 7 9 8 9 6 8 8 8 6 8 9 8 8 7 9 10 10 10 10
6 7 7 8 8 10 9 10 9 9 8 8 9 7 7 5 6 3 3 2 2 3 4 2 3 4 3 2 5 5 5 5 5 5 5 6 6 6 5 4 5 6 6 5 4 6 5 5 6 5 5 6 8 5 3 5 6 5 5 4 4 1 5 6 8 10 6 3 5 6 6 8 8 8 7 8 8 7 7 8 9 10 11 11 10
5 5 4 5 6 7 7 7 8 8 8 8 9 8 8 8 7 7 6 6 5 3 6 6 3 4 5 3 5 5 5 4 3 3 5 5 5 5 5 6 5 3 3 4 4 4 6 7 6 6 6 9 7 4 3 2 6 6 7 7 7 7 9 7 5 8 0 3 9 6 6 7 6 7 6 7 9 8 7 9 9 11 11 10 10
5 2 1 4 5 7 7 7 8 8 8 8 8 8 8 8 9 8 6 7 6 2 2 3 4 2 2 3 2 3 1 1 1 1 0 2 2 3 3 3 3 3 3 3 4 5 5 4 4 6 8 3 3 5 7 5 1 3 7 9 9 9 7 6 7 8 14 1 3 4 4 7 9 7 7 8 10 8 7 8 10 11 11 9 10
3 1 2 1 5 6 6 6 6 7 7 7 8 8 8 6 6 5 5 5 5 4 1 2 3 5 6 4 4 4 3 4 4 3 4 3 2 2 2 2 2 3 3 3 4 4 4 4 3 3 2 3 3 5 5 5 5 4 3 5 5 5 6 6 6 9 10 14 12 7 9 9 8 9 9 9 9 9 9 8 10 11 9 9 10
2 4 3 1 1 4 5 5 5 6 5 7 8 6 7 7 6 6 5 3 5 5 5 5 5 4 6 4 4 3 3 3 3 3 3 3 3 3 3 3 3 3 3 2 3 3 3 3 4 3 3 4 4 5 5 5 4 6 3 3 2 5 6 6 7 6 7 11 16 12 11 5 7 6 8 8 9 9 8 9 10 10 9 9 9
2 2 1 2 3 4 5 6 5 4 5 5 7 5 5 6 6 5 6 5 6 4 5 5 5 4 5 3 3 4 3 3 3 3 4 4 4 3 2 2 2 3 4 4 3 4 5 5 4 5 5 4 3 3 4 4 5 5 3 4 5 3 2 6 5 5 6 8 12 16 13 15 16 8 5 8 6 9 8 8 10 8 9 9 9
2 3 3 3 3 4 5 6 4 5 5 6 6 5 5 5 6 5 6 5 4 6 5 4 3 4 5 3 4 3 3 4 4 4 4 5 5 5 5 5 5 4 3 3 3 4 5 5 5 5 5 6 5 5 5 4 4 5 6 5 6 7 7 4 7 5 5 6 10 14 13 12 13 18 12 5 7 7 6 8 10 9 9 9 8
Wind_Direction
125 116 111 96 101 98 98 98 97 91 82 81 86 77 83 83 81 82 87 88 88 86 87 87 89 87 84 84 81 79 80 80 78 77 76 76 78 78 74 72 74 75 72 71 68 68 68 68 68 68 67 68 68 69 70 71 70 69 68 69 70 71 72 71 67 65 64 64 62 66 72 76 77 76 79 81 76 68 61 54 45 44 52 65 65
132 120 104 103 103 98 100 96 93 89 86 88 83 76 82 84 82 83 93 97 92 92 91 91 87 86 87 82 79 79 78 78 79 78 77 79 77 73 78 79 77 75 73 72 71 70 70 70 69 69 69 71 73 71 70 71 70 68 67 68 68 68 67 65 65 70 69 64 63 63 65 72 74 77 78 80 75 66 60 67 68 64 70 70 65
121 115 113 118 104 104 101 99 98 94 88 89 79 79 84 82 84 86 93 97 95 94 95 94 95 89 85 84 85 85 87 85 80 78 77 79 84 88 82 77 76 75 74 74 74 74 74 73 71 72 73 75 76 70 71 69 68 68 68 66 64 61 58 59 74 78 75 69 61 56 56 65 74 78 80 77 74 71 70 71 71 69 71 74 74
116 119 117 105 102 102 100 98 97 93 93 91 90 91 90 88 87 90 93 97 96 93 90 91 88 90 88 89 87 84 77 78 79 81 79 78 77 74 80 80 80 79 77 76 77 77 77 77 77 76 76 79 78 71 70 68 66 65 62 59 55 50 52 71 84 78 73 70 67 59 51 37 52 72 75 74 71 69 69 70 69 66 65 63 65
118 126 117 97 99 106 108 106 99 92 83 76 92 94 95 92 89 92 101 99 96 96 95 91 89 89 92 90 86 84 83 84 83 81 82 79 83 86 81 79 78 78 77 77 77 76 78 79 80 81 79 81 77 70 68 66 61 57 54 51 46 43 53 77 79 76 73 72 72 66 58 53 50 64 79 78 72 67 67 69 66 67 66 66 63
128 125 112 110 105 108 109 106 102 95 82 76 89 98 90 94 94 97 100 100 97 93 89 90 89 88 91 90 90 87 86 86 89 92 87 83 77 79 85 87 84 77 76 77 79 81 83 82 80 82 83 81 73 70 67 63 59 54 50 45 40 41 45 71 84 80 78 74 68 72 68 60 50 63 76 81 78 79 75 74 72 67 62 60 59
128 122 121 119 114 113 111 106 100 91 82 76 84 97 92 88 93 93 98 100 100 97 93 89 89 92 89 87 89 89 87 89 91 86 83 81 81 84 89 86 82 78 79 82 80 79 78 78 81 82 84 85 75 69 66 63 58 51 43 39 34 31 40 72 92 93 88 79 76 71 72 77 73 65 72 71 71 66 62 65 66 67 65 62 60
122 123 122 119 118 112 109 106 102 95 89 85 95 104 100 97 97 96 96 96 96 93 90 92 94 92 90 95 92 89 87 89 92 91 93 90 89 82 73 76 81 87 86 80 81 82 82 81 81 82 83 86 79 69 62 59 54 50 44 37 30 26 37 69 99 94 84 76 73 69 62 64 78 54 67 67 67 64 59 59 62 64 67 66 65
120 122 119 117 117 118 116 110 102 96 92 92 108 107 106 104 100 99 97 98 98 94 94 94 92 93 95 94 94 93 91 88 91 96 93 92 90 87 84 79 78 74 76 81 82 82 82 82 81 82 83 84 79 67 58 55 53 47 43 36 29 28 41 74 94 88 80 81 77 73 69 60 62 76 73 74 70 68 64 54 55 64 67 67 66
116 113 117 118 122 120 115 110 105 104 100 94 92 110 112 102 101 104 105 103 101 99 95 95 97 99 100 96 95 100 99 96 93 91 94 89 88 86 87 87 85 91 88 84 85 84 83 80 80 79 80 79 77 68 57 54 52 46 41 35 31 34 43 62 71 80 86 85 82 79 80 78 69 77 77 78 76 73 69 60 73 83 72 66 68
118 118 118 120 121 119 115 110 108 103 102 101 101 95 99 111 108 103 98 99 100 99 97 96 96 95 93 97 99 91 88 89 92 95 94 96 95 91 87 85 82 76 79 79 80 81 81 80 81 81 82 80 75 69 59 55 52 46 40 33 29 30 38 61 65 64 72 74 64 54 53 54 61 79 78 82 82 75 64 75 74 71 73 72 69
121 123 124 125 118 117 112 109 111 112 107 103 103 102 99 103 115 108 100 97 99 97 98 96 96 96 100 101 92 91 88 89 88 92 90 93 96 99 95 89 84 79 75 76 79 80 81 81 79 79 78 77 73 68 59 52 48 45 39 32 28 24 29 69 74 81 86 81 76 69 61 46 45 77 82 81 79 76 72 64 65 72 67 68 77
126 125 122 114 115 115 112 111 111 115 114 105 102 103 96 81 101 101 94 98 99 99 95 95 94 95 98 99 98 98 104 99 99 98 92 82 87 89 88 85 81 79 78 78 77 79 79 81 82 80 79 76 71 62 52 45 38 40 39 33 25 20 20 55 76 78 81 83 83 78 70 61 49 77 76 75 69 72 66 62 60 60 63 65 63
130 126 121 119 118 114 112 109 111 115 114 109 105 103 101 92 92 100 107 108 103 102 99 97 94 94 94 89 92 100 98 103 101 95 87 90 91 88 90 90 87 85 81 80 79 81 82 83 82 78 76 73 69 61 50 40 33 37 39 33 23 18 16 38 70 81 80 81 85 90 83 75 61 74 73 71 70 76 64 60 63 64 74 74 69
132 132 127 122 118 115 109 109 112 116 116 111 105 103 104 99 101 103 99 98 100 95 99 97 98 98 94 91 86 91 113 98 82 82 91 92 95 95 90 91 91 87 83 81 82 80 80 78 78 77 75 74 70 63 53 40 29 30 36 31 20 18 28 37 51 62 76 77 72 68 76 81 88 79 71 72 74 75 69 77 83 85 77 71 77
132 131 128 123 121 115 109 115 116 114 110 101 93 92 94 94 88 79 75 98 103 99 98 101 106 101 94 90 81 71 71 91 89 88 73 58 88 103 102 98 95 90 87 85 81 80 78 78 77 78 77 75 68 60 52 40 29 27 30 28 11 17 24 35 63 71 79 86 81 81 69 78 67 74 81 82 80 69 67 53 52 55 68 88 84
130 133 130 129 127 120 118 117 117 107 97 95 88 83 81 81 84 81 75 78 103 104 105 108 110 97 90 85 81 75 73 80 95 84 74 74 66 76 91 94 90 84 79 81 80 82 83 81 79 78 79 76 69 56 46 39 29 26 26 21 16 11 20 32 57 81 95 99 97 90 87 103 124 101 105 108 96 82 86 102 106 97 60 51 66
136 137 135 136 129 127 124 124 121 113 109 98 96 95 93 92 89 86 81 81 95 104 100 99 98 94 84 85 82 75 76 75 75 75 75 70 70 80 84 85 85 84 84 82 84 81 79 80 80 78 78 72 68 57 47 38 33 25 20 21 15 5 6 30 22 74 105 111 118 127 127 239 34 102 93 94 107 114 132 100 81 66 97 99 83
139 138 138 138 137 133 132 135 132 130 124 114 109 103 97 96 96 93 91 89 96 105 103 106 104 97 94 94 94 84 79 79 78 80 80 74 70 68 85 93 89 87 87 84 85 84 81 80 81 83 76 75 68 64 53 43 35 28 15 15 6 354 351 9 16 57 83 121 133 133 156 277 77 119 356 91 110 116 95 350 90 114 65 62 76
139 142 145 145 144 140 144 147 145 144 132 124 117 111 104 99 98 95 94 97 101 107 113 112 112 110 110 111 107 98 91 88 86 79 78 76 75 76 73 84 94 93 88 90 86 88 86 81 79 86 91 89 92 92 84 67 46 21 20 4 351 345 341 336 346 36 63 157 146 151 196 137 86 13 99 133 133 114 91 138 112 111 118 107 119
144 152 154 154 149 149 156 157 159 152 141 134 125 115 113 108 95 97 102 103 107 111 112 114 120 128 128 133 128 120 116 107 95 92 81 80 83 79 81 82 86 89 91 91 89 83 84 82 83 72 84 86 94 112 158 151 172 200 334 341 341 342 318 327 323 337 112 176 145 170 159 167 139 152 180 202 162 152 141 138 200 196 155 173 166
154 160 165 153 150 158 165 166 161 160 149 144 138 132 135 122 125 120 112 112 114 117 122 135 143 158 153 152 139 137 133 125 119 110 108 97 82 90 88 90 90 98 110 104 98 89 82 72 54 64 40 97 109 351 311 296 250 244 240 294 337 310 302 301 295 9 119 128 164 193 186 208 192 223 305 84 129 180 171 165 27 263 220 270 276
157 161 169 158 157 161 170 172 166 162 151 148 144 148 144 138 142 137 135 134 141 138 145 153 173 173 171 174 168 133 157 138 135 133 125 119 118 110 103 101 99 96 95 102 105 98 85 70 356 358 12 57 273 284 271 281 278 267 303 301 270 289 289 287 267 68 155 175 179 206 214 210 229 273 150 163 207 197 180 187 212 165 219 266 265
163 165 164 165 159 163 175 175 163 155 151 150 147 155 154 151 154 152 147 152 158 165 164 170 186 190 180 189 184 148 149 135 136 127 121 115 117 116 118 113 114 113 112 109 119 130 130 267 295 311 326 43 251 283 280 274 279 294 282 281 239 249 262 251 272 277 181 190 195 201 205 222 229 252 277 256 269 158 177 206 234 227 214 242 274
165 168 155 168 169 168 170 168 156 149 150 152 154 162 164 157 162 162 159 166 171 179 177 189 194 202 190 198 169 143 144 135 139 135 133 139 137 138 142 139 143 143 140 142 146 153 119 234 299 300 283 279 274 251 264 230 251 299 293 279 283 241 261 311 288 259 190 195 205 204 203 225 232 251 244 268 259 180 200 222 226 230 224 231 262
161 159 179 168 175 171 167 161 158 150 152 158 164 168 164 165 169 171 166 177 172 181 184 186 195 209 172 186 135 152 138 138 146 147 149 157 161 166 179 173 174 185 179 167 194 197 203 227 232 248 264 251 257 250 187 113 345 77 309 311 257 345 333 306 323 289 211 204 221 212 209 214 230 246 256 260 266 232 235 229 235 235 239 269 255
173 177 179 178 172 168 165 155 160 156 157 163 157 163 174 175 167 173 163 180 187 173 185 185 182 194 174 155 151 142 148 152 163 163 164 168 187 189 188 182 194 206 201 181 200 209 194 209 223 236 234 250 245 275 355 284 235 295 298 289 298 291 312 297 296 304 269 216 218 222 221 220 229 238 254 263 264 264 269 230 240 248 263 257 253
167 178 181 181 170 170 160 157 160 158 166 170 152 170 182 170 170 173 167 176 175 184 181 183 178 182 176 164 174 163 151 165 182 173 182 177 198 203 187 185 197 213 202 188 183 210 201 188 211 239 242 223 228 281 278 296 287 272 271 280 280 268 269 280 270 271 273 232 223 227 228 230 228 236 244 252 265 268 258 252 249 252 263 265 261
177 177 182 175 176 170 156 157 159 161 162 170 159 167 179 147 165 167 175 160 174 184 184 170 170 182 183 182 156 181 154 168 181 196 169 184 202 206 183 195 191 205 190 202 184 194 208 222 210 207 204 220 237 261 248 261 259 263 250 269 270 269 263 265 273 274 274 255 228 233 228 233 235 235 238 244 255 266 269 265 260 259 265 266 257
181 176 173 181 174 163 162 161 161 166 163 159 164 163 176 153 160 165 165 160 164 168 179 163 177 171 189 178 183 165 180 171 185 192 180 203 198 192 175 188 195 194 190 194 205 186 203 225 230 225 213 226 237 240 231 245 260 249 241 243 258 254 248 246 257 269 269 275 247 231 239 234 237 238 239 243 247 252 262 269 271 268 264 264 264
172 174 177 176 174 164 167 165 162 164 164 168 162 166 169 169 166 170 155 155 168 152 147 177 172 179 183 183 181 171 154 159 184 185 184 196 197 188 188 178 201 199 190 201 190 196 199 207 212 216 216 220 228 226 208 231 243 253 247 243 250 250 255 251 254 261 271 266 265 253 239 239 240 240 240 241 244 249 253 259 263 267 267 267 262
172 179 178 167 168 172 170 169 164 167 165 175 169 161 172 175 167 167 171 174 164 188 192 164 181 186 182 187 185 189 175 146 168 196 186 186 189 186 200 184 209 212 195 199 197 208 198 211 219 218 215 206 237 264 242 230 242 244 242 250 257 256 254 250 251 257 261 263 259 258 249 242 245 245 246 245 245 247 249 252 258 263 269 267 268
186 172 176 164 172 176 168 176 165 165 169 175 177 172 169 172 166 164 178 178 173 187 192 207 183 169 174 174 187 194 196 181 165 181 181 184 187 188 201 206 211 209 199 199 198 209 208 202 251 259 232 231 274 274 272 236 252 260 258 249 245 257 257 252 249 253 257 258 258 255 257 247 243 247 248 249 250 250 249 251 252 258 263 267 266
179 179 168 176 173 175 166 164 167 166 172 171 174 171 179 174 173 161 166 176 181 183 189 182 177 179 156 172 172 180 203 202 162 169 188 163 179 198 204 217 219 210 202 194 194 198 206 215 246 293 267 272 267 269 288 285 270 273 269 263 246 250 255 253 246 245 249 254 252 256 255 254 243 244 243 246 247 250 252 250 253 255 257 258 261
164 178 178 178 169 173 171 168 164 165 168 172 174 176 173 171 172 176 161 169 182 184 190 181 166 205 185 164 166 166 173 177 171 176 209 204 213 206 213 225 218 205 192 202 189 195 190 214 220 243 260 260 254 262 259 257 266 268 263 264 261 258 257 249 247 249 247 249 253 253 252 249 249 244 242 242 243 245 246 249 250 250 251 254 256
171 179 181 171 172 173 176 173 172 163 178 170 173 176 170 166 173 176 177 166 175 183 187 187 200 189 184 172 174 170 168 143 109 97 245 257 228 229 231 240 239 201 198 194 179 191 209 225 232 209 240 255 257 266 253 258 255 259 260 260 257 255 253 250 247 247 246 249 250 253 250 248 246 244 241 239 243 241 240 243 246 247 248 250 251
177 170 176 174 171 174 173 171 183 179 173 173 164 170 170 164 171 177 182 176 177 184 189 189 193 207 206 188 179 173 188 166 147 161 220 228 251 259 271 245 237 214 191 191 191 203 199 221 240 227 214 243 239 259 270 257 261 259 265 265 260 256 250 245 243 244 253 247 250 249 250 248 245 245 244 242 242 244 245 241 241 245 248 248 249
179 170 175 174 173 173 175 174 179 178 177 180 176 167 170 157 160 181 185 187 195 197 187 180 196 198 195 205 197 182 179 182 202 232 224 242 252 235 244 246 231 221 213 190 204 203 214 215 245 250 235 242 252 252 261 259 259 273 279 272 270 266 259 257 252 255 250 255 252 249 245 247 246 245 244 244 244 246 249 248 246 247 247 248 249
178 174 169 175 162 169 168 171 172 174 175 177 177 167 163 172 166 167 190 200 199 199 197 191 185 186 189 188 184 188 201 197 193 207 236 253 245 242 244 248 226 208 218 220 228 245 259 250 237 264 254 231 238 244 250 261 274 278 277 272 270 265 271 266 267 264 257 252 253 253 254 251 248 250 249 249 247 249 250 250 251 252 253 249 249
176 175 170 167 169 166 172 170 177 174 166 170 168 170 171 177 188 188 193 203 200 196 199 198 197 195 197 191 191 194 196 198 195 199 208 225 242 250 248 246 242 216 225 245 247 230 234 241 248 241 260 264 240 250 260 275 277 276 276 278 267 273 277 268 265 259 258 257 254 257 256 257 254 253 254 252 253 250 249 251 250 251 253 254 250
174 174 174 177 175 175 169 181 181 171 168 169 175 175 180 184 195 202 206 195 196 194 199 201 196 201 198 200 199 196 197 202 208 204 213 219 221 231 240 252 246 238 229 229 224 231 230 223 238 221 237 256 266 239 258 228 277 287 276 273 283 264 259 260 257 254 250 251 256 258 255 260 254 254 252 254 255 252 249 250 249 250 253 252 256
189 178 182 187 181 170 178 180 170 175 179 177 177 182 185 189 189 199 187 180 189 194 205 209 203 199 200 202 200 200 202 203 205 207 218 222 225 223 220 227 227 227 229 236 239 233 232 227 227 259 219 232 255 223 242 131 271 256 298 302 288 268 253 245 245 248 250 257 256 249 251 248 253 252 256 256 256 252 251 248 249 251 251 252 252
183 184 185 175 180 176 182 175 178 175 181 176 171 186 187 184 179 185 184 195 210 193 192 204 205 206 203 200 197 196 200 207 205 208 216 225 227 225 225 222 219 220 229 241 245 255 243 242 228 226 252 228 244 238 217 182 254 228 247 303 293 324 298 284 265 267 253 251 247 246 247 250 253 252 254 256 254 250 248 246 249 250 251 250 251
169 181 179 182 184 182 177 177 181 177 177 181 179 180 179 180 184 175 186 184 194 199 204 212 212 211 220 209 200 192 194 200 204 208 215 221 222 228 235 222 229 218 222 236 232 236 227 226 224 234 215 281 257 261 199 191 208 250 301 210 285 316 308 286 304 269 222 237 237 247 248 253 252 257 256 251 249 251 250 249 252 250 252 252 251
186 186 185 185 186 186 178 176 179 180 179 176 179 172 165 169 181 182 167 129 60 114 137 114 180 198 210 194 219 202 208 212 206 209 214 223 228 225 225 231 233 232 221 234 236 228 224 221 216 221 216 232 256 246 255 199 214 208 233 304 307 268 233 286 318 292 250 243 264 254 253 256 254 254 251 254 260 255 255 254 252 254 253 254 254
205 216 198 193 178 180 174 173 175 179 181 178 174 168 175 174 174 168 173 180 176 133 159 174 162 143 186 209 208 203 208 217 215 223 218 223 234 238 238 241 249 258 227 218 228 236 232 227 225 222 243 236 242 270 278 245 215 210 219 225 231 269 296 293 339 309 99 267 269 244 258 258 250 255 240 252 256 251 241 252 250 254 253 252 253
223 245 205 197 185 178 178 172 171 180 181 177 172 165 172 179 182 180 170 173 162 221 214 191 169 201 84 56 48 38 34 129 83 122 227 218 247 273 280 286 286 286 276 274 263 258 265 249 237 226 241 250 202 242 247 266 271 247 225 230 240 250 271 308 289 306 305 259 208 295 251 255 266 257 244 238 250 252 245 238 251 251 252 251 252
212 187 134 134 171 178 172 167 164 168 177 171 169 166 163 166 165 170 165 149 153 171 148 91 63 85 74 61 63 52 47 62 59 56 66 62 46 14 357 353 348 304 311 299 284 281 273 273 276 278 269 224 212 226 250 246 245 261 209 250 268 284 282 276 266 274 291 301 287 250 253 261 254 246 255 253 248 246 249 243 248 255 254 250 249
169 164 161 132 143 149 148 141 141 146 163 162 159 160 148 148 145 142 132 156 141 124 106 89 84 77 81 53 66 52 42 38 61 72 76 74 67 56 37 31 21 0 7 339 324 322 314 314 318 311 277 263 235 244 253 261 260 271 310 262 242 253 256 243 257 239 259 289 291 300 304 266 237 244 259 236 247 251 246 251 250 252 257 254 249
203 183 151 90 103 120 127 128 125 121 138 140 138 132 130 125 123 132 133 134 121 107 89 89 84 71 69 42 29 39 30 27 19 31 30 15 358 356 350 344 357 19 18 357 357 357 356 350 334 317 305 291 279 264 254 269 267 273 265 273 264 293 276 262 255 270 265 250 277 298 298 304 305 286 222 273 239 246 249 248 257 257 253 255 254
112 131 137 118 100 105 114 106 109 102 113 125 120 111 106 119 126 135 139 144 125 114 102 93 95 63 64 28 19 354 15 13 7 4 14 2 3 13 10 358 352 348 349 8 3 2 2 6 2 3 356 343 332 328 315 297 288 284 279 271 266 260 275 312 294 253 231 266 276 284 297 303 300 304 295 245 273 263 235 251 255 253 248 259 256